Regional Weather Roundup
Issued by NWS

Home | Current Version | Previous Version | Text Only | Print | Product List | Glossary On
Versions: 1 2 3 4 5 6 7 8 9 10 11 12 13 14 15 16 17 18 19 20 21 22 23 24 25 26 27 28 29 30 31 32 33 34 35 36 37 38 39 40 41 42 43 44 45 46 47 48 49 50
614
ASUS43 KBIS 220231
RWRND
NORTH DAKOTA REGIONAL WEATHER ROUNDUP
NATIONAL WEATHER SERVICE EASTERN NORTH DAKOTA/GRAND FORKS ND
900 PM CDT SAT APR 21 2018

  NOTE: "FAIR" INDICATES FEW OR NO CLOUDS BELOW 12,000 FEET WITH NO
  SIGNIFICANT WEATHER AND/OR OBSTRUCTIONS TO VISIBILITY.

NDZ001>003-009>011-017-220300-
...NORTHWEST NORTH DAKOTA...

CITY           SKY/WX    TMP DP  RH WIND       PRES   REMARKS
WILLISTON      FAIR      61  39  44 S14       29.96R
MINOT          FAIR      54  38  54 SE15      30.04F
MINOT AFB      FAIR      53  39  58 S16G23    30.03S
$$

NDZ018>021-031>035-040>046-220300-
...SOUTHWEST NORTH DAKOTA...

CITY           SKY/WX    TMP DP  RH WIND       PRES   REMARKS
BISMARCK       FAIR      50  36  58 S12       30.16S
DICKINSON      FAIR      50  37  61 S15       30.04R
GARRISON         N/A     46  36  68 S10       30.08S
HETTINGER      FAIR      47  36  65 S16       30.10S
$$

NDZ004>008-012>016-024-026-027-054-220300-
...NORTHEAST NORTH DAKOTA...

CITY           SKY/WX    TMP DP  RH WIND       PRES   REMARKS
GRAND FORKS    FAIR      50  46  86 SE7       30.23S
GRAND FORKS AF FAIR      49  43  78 SE8       30.22F
DEVILS LAKE    FAIR      50  37  61 S13       30.18S
$$

NDZ022-023-025-028>030-036>039-047>053-220300-
...SOUTHEAST NORTH DAKOTA...

CITY           SKY/WX    TMP DP  RH WIND       PRES   REMARKS
JAMESTOWN      FAIR      46  36  68 S9        30.21R
FARGO          FAIR      54  43  66 SE10      30.25S
WAHPETON       FAIR      46  39  76 SE10      30.30R
$$




USA.gov is the U.S. government's official web portal to all federal, state and local government web resources and services.